Time,TemperatureF,DewpointF,PressureIn,WindDirection,WindDirectionDegrees,WindSpeedMPH,WindSpeedGustMPH,Humidity,HourlyPrecipIn,Conditions,Clouds,dailyrainin,SoftwareType,DateUTC
2017-05-28 00:02:00,57.1,52.3,29.88,SSE,167,0.0,0.0,84,0.00,,,0.00,WeatherCatV2.41B14,2017-05-28 04:02:00,
2017-05-28 00:07:00,57.1,52.3,29.87,SSE,167,0.0,0.0,84,0.00,,,0.00,WeatherCatV2.41B14,2017-05-28 04:07:00,
2017-05-28 00:12:00,57.1,52.3,29.87,SSE,167,0.0,0.0,84,0.00,,,0.00,WeatherCatV2.41B14,2017-05-28 04:12:00,
2017-05-28 00:17:00,57.0,52.2,29.87,SSE,167,0.0,0.0,84,0.00,,,0.00,WeatherCatV2.41B14,2017-05-28 04:17:00,
2017-05-28 00:22:00,57.0,52.2,29.87,SSE,167,0.0,0.0,84,0.00,,,0.00,WeatherCatV2.41B14,2017-05-28 04:22:00,
2017-05-28 00:27:00,57.0,52.2,29.87,SSE,167,0.0,0.0,84,0.00,,,0.00,WeatherCatV2.41B14,2017-05-28 04:27:00,
2017-05-28 00:32:00,57.0,52.2,29.87,SSE,167,0.0,0.0,84,0.00,,,0.00,WeatherCatV2.41B14,2017-05-28 04:32:00,
2017-05-28 00:37:00,57.0,52.2,29.87,SSE,167,0.0,0.0,84,0.00,,,0.00,WeatherCatV2.41B14,2017-05-28 04:37:00,
2017-05-28 00:42:00,56.9,52.1,29.87,SSE,167,0.0,0.0,84,0.00,,,0.00,WeatherCatV2.41B14,2017-05-28 04:42:00,
2017-05-28 00:47:00,56.8,52.0,29.87,SSE,167,0.0,0.0,84,0.00,,,0.00,WeatherCatV2.41B14,2017-05-28 04:47:00,
2017-05-28 00:52:00,56.8,52.0,29.86,SSE,167,0.0,0.0,84,0.00,,,0.00,WeatherCatV2.41B14,2017-05-28 04:52:00,
2017-05-28 00:57:00,56.8,52.0,29.87,SSE,167,0.0,0.0,84,0.00,,,0.00,WeatherCatV2.41B14,2017-05-28 04:57:00,
2017-05-28 01:02:00,56.8,52.0,29.86,SSE,167,0.0,0.0,84,0.00,,,0.00,WeatherCatV2.41B14,2017-05-28 05:02:00,
2017-05-28 01:07:00,56.6,51.8,29.86,SSE,167,0.0,0.0,84,0.00,,,0.00,WeatherCatV2.41B14,2017-05-28 05:07:00,
2017-05-28 01:12:00,56.6,51.8,29.86,SSE,167,0.0,0.0,84,0.00,,,0.00,WeatherCatV2.41B14,2017-05-28 05:12:00,
2017-05-28 01:17:00,56.6,51.8,29.86,SSE,167,0.0,0.0,84,0.00,,,0.00,WeatherCatV2.41B14,2017-05-28 05:17:00,
2017-05-28 01:22:00,56.4,51.6,29.85,SSE,167,0.0,0.0,84,0.00,,,0.00,WeatherCatV2.41B14,2017-05-28 05:22:00,
2017-05-28 01:27:00,56.3,51.5,29.85,SSE,167,0.0,0.0,84,0.00,,,0.00,WeatherCatV2.41B14,2017-05-28 05:27:00,
2017-05-28 01:32:00,56.2,51.4,29.85,SSE,167,0.0,0.0,84,0.00,,,0.00,WeatherCatV2.41B14,2017-05-28 05:32:00,
2017-05-28 01:37:00,56.2,51.4,29.85,SSE,167,0.0,0.0,84,0.00,,,0.00,WeatherCatV2.41B14,2017-05-28 05:37:00,
2017-05-28 01:42:00,56.0,51.2,29.85,SSE,167,0.0,0.0,84,0.00,,,0.00,WeatherCatV2.41B14,2017-05-28 05:42:00,
2017-05-28 01:47:00,55.9,51.1,29.85,SSE,167,0.0,0.0,84,0.00,,,0.00,WeatherCatV2.41B14,2017-05-28 05:47:00,
2017-05-28 01:52:00,55.9,51.1,29.85,SSE,167,0.0,0.0,84,0.00,,,0.00,WeatherCatV2.41B14,2017-05-28 05:52:00,
2017-05-28 01:57:00,55.8,51.0,29.85,SSE,167,0.0,0.0,84,0.00,,,0.00,WeatherCatV2.41B14,2017-05-28 05:57:00,
2017-05-28 02:02:00,55.7,50.9,29.85,SSE,167,0.0,0.0,84,0.00,,,0.00,WeatherCatV2.41B14,2017-05-28 06:02:00,
2017-05-28 02:07:00,55.7,50.9,29.85,SSE,167,0.0,0.0,84,0.00,,,0.00,WeatherCatV2.41B14,2017-05-28 06:07:00,
2017-05-28 02:12:00,55.7,50.9,29.85,SSE,167,0.0,0.0,84,0.00,,,0.00,WeatherCatV2.41B14,2017-05-28 06:12:00,
2017-05-28 02:17:00,55.7,50.9,29.85,SSE,167,0.0,0.0,84,0.00,,,0.00,WeatherCatV2.41B14,2017-05-28 06:17:00,
2017-05-28 02:22:00,55.7,50.9,29.85,SSE,167,0.0,0.0,84,0.00,,,0.00,WeatherCatV2.41B14,2017-05-28 06:22:00,
2017-05-28 02:27:00,55.7,50.9,29.85,SSE,167,0.0,0.0,84,0.00,,,0.00,WeatherCatV2.41B14,2017-05-28 06:27:00,
2017-05-28 02:32:00,55.7,50.9,29.85,SSE,167,0.0,0.0,84,0.00,,,0.00,WeatherCatV2.41B14,2017-05-28 06:32:00,
2017-05-28 02:37:00,55.6,50.8,29.85,SSE,167,0.0,0.0,84,0.00,,,0.00,WeatherCatV2.41B14,2017-05-28 06:37:00,
2017-05-28 02:42:00,55.6,50.8,29.85,SSE,167,0.0,0.0,84,0.00,,,0.00,WeatherCatV2.41B14,2017-05-28 06:42:00,
2017-05-28 02:47:00,55.7,50.9,29.85,SSE,167,0.0,0.0,84,0.00,,,0.00,WeatherCatV2.41B14,2017-05-28 06:47:00,
2017-05-28 02:52:00,55.6,50.8,29.86,SSE,167,0.0,0.0,84,0.00,,,0.00,WeatherCatV2.41B14,2017-05-28 06:52:00,
2017-05-28 02:57:00,55.6,50.8,29.86,SSE,167,0.0,0.0,84,0.00,,,0.00,WeatherCatV2.41B14,2017-05-28 06:57:00,
2017-05-28 03:02:00,55.6,50.8,29.86,SSE,167,0.0,0.0,84,0.00,,,0.00,WeatherCatV2.41B14,2017-05-28 07:02:00,
2017-05-28 03:07:00,55.6,50.8,29.86,SSE,167,0.0,0.0,84,0.00,,,0.00,WeatherCatV2.41B14,2017-05-28 07:07:00,
2017-05-28 03:12:00,55.6,50.8,29.86,SSE,167,0.0,0.0,84,0.00,,,0.00,WeatherCatV2.41B14,2017-05-28 07:12:00,
2017-05-28 03:17:00,55.5,50.7,29.86,SSE,167,0.0,0.0,84,0.00,,,0.00,WeatherCatV2.41B14,2017-05-28 07:17:00,
2017-05-28 03:22:00,55.5,50.7,29.86,SSE,167,0.0,0.0,84,0.00,,,0.00,WeatherCatV2.41B14,2017-05-28 07:22:00,
2017-05-28 03:27:00,55.4,50.6,29.86,SSE,167,0.0,0.0,84,0.00,,,0.00,WeatherCatV2.41B14,2017-05-28 07:27:00,
2017-05-28 03:32:00,55.4,50.6,29.86,SSE,167,0.0,0.0,84,0.00,,,0.00,WeatherCatV2.41B14,2017-05-28 07:32:00,
2017-05-28 03:37:00,55.4,50.6,29.86,SSE,167,0.0,0.0,84,0.00,,,0.00,WeatherCatV2.41B14,2017-05-28 07:37:00,
2017-05-28 03:42:00,55.4,50.6,29.86,SSE,167,0.0,0.0,84,0.00,,,0.00,WeatherCatV2.41B14,2017-05-28 07:42:00,
2017-05-28 03:47:00,55.4,50.6,29.86,SSE,167,0.0,0.0,84,0.00,,,0.00,WeatherCatV2.41B14,2017-05-28 07:47:00,
2017-05-28 03:52:00,55.2,50.5,29.85,SSE,167,0.0,0.0,84,0.00,,,0.00,WeatherCatV2.41B14,2017-05-28 07:52:00,
2017-05-28 03:57:00,55.2,50.5,29.85,SSE,167,0.0,0.0,84,0.00,,,0.00,WeatherCatV2.41B14,2017-05-28 07:57:00,
2017-05-28 04:02:00,55.1,50.3,29.85,SSE,167,0.0,0.0,84,0.00,,,0.00,WeatherCatV2.41B14,2017-05-28 08:02:00,
2017-05-28 04:07:00,55.1,50.3,29.85,SSE,167,0.0,0.0,84,0.00,,,0.00,WeatherCatV2.41B14,2017-05-28 08:07:00,
2017-05-28 04:12:00,55.0,50.2,29.85,SSE,167,0.0,0.0,84,0.00,,,0.00,WeatherCatV2.41B14,2017-05-28 08:12:00,
2017-05-28 04:17:00,55.0,50.2,29.85,SSE,167,0.0,0.0,84,0.00,,,0.00,WeatherCatV2.41B14,2017-05-28 08:17:00,
2017-05-28 04:22:00,54.9,50.5,29.85,SSE,167,0.0,0.0,85,0.00,,,0.00,WeatherCatV2.41B14,2017-05-28 08:22:00,
2017-05-28 04:23:00,54.9,50.5,29.85,SSE,167,0.0,0.0,85,0.00,,,0.00,WeatherCatV2.41B14,2017-05-28 08:23:00,
2017-05-28 04:28:00,54.8,50.4,29.86,SSE,167,0.0,0.0,85,0.00,,,0.00,WeatherCatV2.41B14,2017-05-28 08:28:00,
2017-05-28 04:33:00,54.8,50.4,29.86,SSE,167,0.0,0.0,85,0.00,,,0.00,WeatherCatV2.41B14,2017-05-28 08:33:00,
2017-05-28 04:34:00,54.8,50.4,29.86,SSE,167,0.0,0.0,85,0.00,,,0.00,WeatherCatV2.41B14,2017-05-28 08:34:00,
2017-05-28 04:39:00,54.8,50.4,29.86,SSE,167,0.0,0.0,85,0.00,,,0.00,WeatherCatV2.41B14,2017-05-28 08:39:00,
2017-05-28 04:44:00,54.8,50.4,29.85,SSE,167,0.0,0.0,85,0.00,,,0.00,WeatherCatV2.41B14,2017-05-28 08:44:00,
2017-05-28 04:49:00,54.8,50.4,29.85,SSE,167,0.0,0.0,85,0.00,,,0.00,WeatherCatV2.41B14,2017-05-28 08:49:00,
2017-05-28 04:54:00,54.8,50.4,29.85,SSE,167,0.0,0.0,85,0.00,,,0.00,WeatherCatV2.41B14,2017-05-28 08:54:00,
2017-05-28 05:04:00,54.8,50.4,29.85,SSE,167,0.0,0.0,85,0.00,,,0.00,WeatherCatV2.41B14,2017-05-28 09:04:00,
2017-05-28 05:09:00,54.8,50.4,29.85,SSE,167,0.0,0.0,85,0.00,,,0.00,WeatherCatV2.41B14,2017-05-28 09:09:00,
2017-05-28 05:14:00,54.8,50.4,29.85,SSE,167,0.0,0.0,85,0.00,,,0.00,WeatherCatV2.41B14,2017-05-28 09:14:00,
2017-05-28 05:19:00,54.7,50.3,29.85,SSE,167,0.0,0.0,85,0.00,,,0.00,WeatherCatV2.41B14,2017-05-28 09:19:00,
2017-05-28 05:24:00,54.6,50.2,29.85,SSE,167,0.0,0.0,85,0.00,,,0.00,WeatherCatV2.41B14,2017-05-28 09:24:00,
2017-05-28 05:29:00,54.6,50.2,29.86,SSE,167,0.0,0.0,85,0.00,,,0.00,WeatherCatV2.41B14,2017-05-28 09:29:00,
2017-05-28 05:34:00,54.5,50.1,29.86,SSE,167,0.0,0.0,85,0.00,,,0.00,WeatherCatV2.41B14,2017-05-28 09:34:00,
2017-05-28 05:39:00,54.3,49.9,29.86,SSE,167,0.0,0.0,85,0.00,,,0.00,WeatherCatV2.41B14,2017-05-28 09:39:00,
2017-05-28 05:44:00,54.2,49.8,29.87,SSE,167,0.0,0.0,85,0.00,,,0.00,WeatherCatV2.41B14,2017-05-28 09:44:00,
2017-05-28 05:49:00,54.2,49.8,29.87,SSE,167,0.0,0.0,85,0.00,,,0.00,WeatherCatV2.41B14,2017-05-28 09:49:00,
2017-05-28 05:54:00,54.3,49.9,29.87,SSE,167,0.0,0.0,85,0.00,,,0.00,WeatherCatV2.41B14,2017-05-28 09:54:00,
2017-05-28 05:59:00,54.3,49.9,29.87,SSE,167,0.0,0.0,85,0.00,,,0.00,WeatherCatV2.41B14,2017-05-28 09:59:00,
2017-05-28 06:04:00,54.3,49.9,29.87,SSE,167,0.0,0.0,85,0.00,,,0.00,WeatherCatV2.41B14,2017-05-28 10:04:00,
2017-05-28 06:09:00,54.4,50.0,29.87,SSE,167,0.0,0.0,85,0.00,,,0.00,WeatherCatV2.41B14,2017-05-28 10:09:00,
2017-05-28 06:14:00,54.4,50.0,29.87,SSE,167,0.0,0.0,85,0.00,,,0.00,WeatherCatV2.41B14,2017-05-28 10:14:00,
2017-05-28 06:19:00,54.5,50.1,29.88,SSE,167,0.0,0.0,85,0.00,,,0.00,WeatherCatV2.41B14,2017-05-28 10:19:00,
2017-05-28 06:24:00,54.5,50.1,29.89,SSE,167,0.0,0.0,85,0.00,,,0.00,WeatherCatV2.41B14,2017-05-28 10:24:00,
2017-05-28 06:29:00,54.5,50.1,29.89,SSE,167,0.0,0.0,85,0.00,,,0.00,WeatherCatV2.41B14,2017-05-28 10:29:00,
2017-05-28 06:34:00,54.5,50.1,29.89,SSE,167,0.0,0.0,85,0.00,,,0.00,WeatherCatV2.41B14,2017-05-28 10:34:00,
2017-05-28 06:39:00,54.5,50.1,29.90,SSE,167,0.0,0.0,85,0.00,,,0.00,WeatherCatV2.41B14,2017-05-28 10:39:00,
2017-05-28 06:40:00,54.5,50.1,29.90,SSE,167,0.0,0.0,85,0.00,,,0.00,WeatherCatV2.41B14,2017-05-28 10:40:00,
2017-05-28 06:45:00,54.6,50.2,29.90,SSE,167,0.0,0.0,85,0.00,,,0.00,WeatherCatV2.41B14,2017-05-28 10:45:00,
2017-05-28 06:46:00,54.6,50.2,29.90,SSE,167,0.0,0.0,85,0.00,,,0.00,WeatherCatV2.41B14,2017-05-28 10:46:00,
2017-05-28 06:51:00,54.5,49.8,29.91,SSE,167,0.0,0.0,84,0.00,,,0.00,WeatherCatV2.41B14,2017-05-28 10:51:00,
2017-05-28 06:56:00,54.5,49.8,29.91,SSE,167,0.0,0.0,84,0.00,,,0.00,WeatherCatV2.41B14,2017-05-28 10:56:00,
2017-05-28 07:01:00,54.6,49.9,29.91,SSE,167,0.0,0.0,84,0.00,,,0.00,WeatherCatV2.41B14,2017-05-28 11:01:00,
2017-05-28 07:06:00,54.6,49.9,29.91,SSE,167,0.0,0.0,84,0.00,,,0.00,WeatherCatV2.41B14,2017-05-28 11:06:00,
2017-05-28 07:11:00,54.6,49.9,29.92,SSE,167,0.0,0.0,84,0.00,,,0.00,WeatherCatV2.41B14,2017-05-28 11:11:00,
2017-05-28 07:16:00,54.6,49.9,29.92,SSE,167,0.0,0.0,84,0.00,,,0.00,WeatherCatV2.41B14,2017-05-28 11:16:00,
2017-05-28 07:21:00,54.7,50.0,29.92,SSE,167,0.0,0.0,84,0.00,,,0.00,WeatherCatV2.41B14,2017-05-28 11:21:00,
2017-05-28 07:26:00,54.8,50.1,29.92,SSE,167,0.0,0.0,84,0.00,,,0.00,WeatherCatV2.41B14,2017-05-28 11:26:00,
2017-05-28 07:31:00,54.8,50.1,29.92,SSE,167,0.0,0.0,84,0.00,,,0.00,WeatherCatV2.41B14,2017-05-28 11:31:00,
2017-05-28 07:36:00,54.9,50.2,29.92,SSE,167,0.0,0.0,84,0.00,,,0.00,WeatherCatV2.41B14,2017-05-28 11:36:00,
2017-05-28 07:41:00,54.9,50.2,29.92,SSE,167,0.0,0.0,84,0.00,,,0.00,WeatherCatV2.41B14,2017-05-28 11:41:00,
2017-05-28 07:46:00,55.0,50.2,29.92,SSE,167,0.0,0.0,84,0.00,,,0.00,WeatherCatV2.41B14,2017-05-28 11:46:00,
2017-05-28 07:51:00,55.1,50.3,29.92,SSE,167,0.0,0.0,84,0.00,,,0.00,WeatherCatV2.41B14,2017-05-28 11:51:00,
2017-05-28 07:56:00,55.3,50.5,29.92,SSE,167,0.0,0.0,84,0.00,,,0.00,WeatherCatV2.41B14,2017-05-28 11:56:00,
2017-05-28 08:01:00,55.4,50.6,29.92,SSE,167,0.0,0.0,84,0.00,,,0.00,WeatherCatV2.41B14,2017-05-28 12:01:00,
2017-05-28 08:06:00,55.7,50.9,29.92,SSE,167,0.0,0.0,84,0.00,,,0.00,WeatherCatV2.41B14,2017-05-28 12:06:00,
2017-05-28 08:11:00,55.8,51.0,29.92,SSE,167,0.0,0.0,84,0.00,,,0.00,WeatherCatV2.41B14,2017-05-28 12:11:00,
2017-05-28 08:16:00,56.1,51.3,29.92,SSE,167,0.0,0.0,84,0.00,,,0.00,WeatherCatV2.41B14,2017-05-28 12:16:00,
2017-05-28 08:17:00,56.2,51.4,29.93,SSE,167,0.0,0.0,84,0.00,,,0.00,WeatherCatV2.41B14,2017-05-28 12:17:00,
2017-05-28 08:22:00,56.2,51.1,29.92,SSE,167,0.0,0.0,83,0.00,,,0.00,WeatherCatV2.41B14,2017-05-28 12:22:00,
2017-05-28 08:27:00,56.2,51.1,29.92,SSE,167,0.0,0.0,83,0.00,,,0.00,WeatherCatV2.41B14,2017-05-28 12:27:00,
2017-05-28 08:32:00,56.5,51.4,29.92,SSE,167,0.0,0.0,83,0.00,,,0.00,WeatherCatV2.41B14,2017-05-28 12:32:00,
2017-05-28 08:37:00,56.6,51.5,29.92,SSE,167,0.0,0.0,83,0.00,,,0.00,WeatherCatV2.41B14,2017-05-28 12:37:00,
2017-05-28 08:42:00,56.8,51.7,29.92,SSE,167,0.0,0.0,83,0.00,,,0.00,WeatherCatV2.41B14,2017-05-28 12:42:00,
2017-05-28 08:47:00,57.1,52.0,29.92,SSE,167,0.0,0.0,83,0.00,,,0.00,WeatherCatV2.41B14,2017-05-28 12:47:00,
2017-05-28 08:52:00,57.3,51.8,29.92,SSE,167,0.0,0.0,82,0.00,,,0.00,WeatherCatV2.41B14,2017-05-28 12:52:00,
2017-05-28 08:57:00,57.6,52.1,29.92,SSE,167,0.0,0.0,82,0.00,,,0.00,WeatherCatV2.41B14,2017-05-28 12:57:00,
2017-05-28 09:02:00,57.7,52.2,29.92,SSE,167,0.0,0.0,82,0.00,,,0.00,WeatherCatV2.41B14,2017-05-28 13:02:00,
2017-05-28 09:07:00,58.0,52.5,29.92,SSE,167,0.0,0.0,82,0.00,,,0.00,WeatherCatV2.41B14,2017-05-28 13:07:00,
2017-05-28 09:12:00,58.6,53.1,29.92,SSE,167,0.0,0.0,82,0.00,,,0.00,WeatherCatV2.41B14,2017-05-28 13:12:00,
2017-05-28 09:17:00,59.0,53.2,29.92,SSE,167,0.0,0.0,81,0.00,,,0.00,WeatherCatV2.41B14,2017-05-28 13:17:00,
2017-05-28 09:22:00,59.5,53.7,29.91,SSE,167,2.0,3.0,81,0.00,,,0.00,WeatherCatV2.41B14,2017-05-28 13:22:00,
2017-05-28 09:27:00,60.3,53.8,29.91,SSE,167,0.0,1.0,79,0.00,,,0.00,WeatherCatV2.41B14,2017-05-28 13:27:00,
2017-05-28 09:32:00,61.1,54.5,29.91,SSE,167,2.0,2.0,79,0.00,,,0.00,WeatherCatV2.41B14,2017-05-28 13:32:00,
2017-05-28 09:37:00,61.7,54.8,29.91,SSE,167,0.0,3.0,78,0.00,,,0.00,WeatherCatV2.41B14,2017-05-28 13:37:00,
2017-05-28 09:42:00,62.1,55.2,29.91,SSE,167,0.0,0.0,78,0.00,,,0.00,WeatherCatV2.41B14,2017-05-28 13:42:00,
2017-05-28 09:47:00,61.9,55.0,29.91,SSE,167,0.0,0.0,78,0.00,,,0.00,WeatherCatV2.41B14,2017-05-28 13:47:00,
2017-05-28 09:52:00,62.3,55.3,29.91,SSE,167,0.0,0.0,78,0.00,,,0.00,WeatherCatV2.41B14,2017-05-28 13:52:00,
2017-05-28 09:57:00,62.6,54.9,29.90,SSE,167,0.0,0.0,76,0.00,,,0.00,WeatherCatV2.41B14,2017-05-28 13:57:00,
2017-05-28 10:02:00,62.7,55.4,29.90,SSE,167,0.0,0.0,77,0.00,,,0.00,WeatherCatV2.41B14,2017-05-28 14:02:00,
2017-05-28 10:07:00,63.0,55.7,29.90,SSE,167,0.0,0.0,77,0.00,,,0.00,WeatherCatV2.41B14,2017-05-28 14:07:00,
2017-05-28 10:12:00,63.5,56.5,29.90,SSE,167,0.0,0.0,78,0.00,,,0.00,WeatherCatV2.41B14,2017-05-28 14:12:00,
2017-05-28 10:17:00,64.1,56.4,29.90,SSE,165,0.0,0.0,76,0.00,,,0.00,WeatherCatV2.41B14,2017-05-28 14:17:00,
2017-05-28 10:22:00,64.5,57.1,29.91,SSE,163,0.0,3.0,77,0.00,,,0.00,WeatherCatV2.41B14,2017-05-28 14:22:00,
2017-05-28 10:27:00,65.0,56.9,29.90,SSE,163,0.0,0.0,75,0.00,,,0.00,WeatherCatV2.41B14,2017-05-28 14:27:00,
2017-05-28 10:32:00,65.8,57.7,29.90,SSE,163,0.0,3.0,75,0.00,,,0.00,WeatherCatV2.41B14,2017-05-28 14:32:00,
2017-05-28 10:37:00,66.2,56.9,29.90,SSE,164,0.0,0.0,72,0.00,,,0.00,WeatherCatV2.41B14,2017-05-28 14:37:00,
2017-05-28 10:42:00,66.1,57.9,29.90,SSE,164,0.0,0.0,75,0.00,,,0.00,WeatherCatV2.41B14,2017-05-28 14:42:00,
2017-05-28 10:47:00,66.7,58.1,29.90,SSE,163,0.0,0.0,74,0.00,,,0.00,WeatherCatV2.41B14,2017-05-28 14:47:00,
2017-05-28 10:52:00,67.5,58.2,29.91,SSE,163,0.0,0.0,72,0.00,,,0.00,WeatherCatV2.41B14,2017-05-28 14:52:00,
2017-05-28 10:57:00,68.2,58.8,29.90,SSE,163,0.0,3.0,72,0.00,,,0.00,WeatherCatV2.41B14,2017-05-28 14:57:00,
2017-05-28 11:02:00,68.8,58.6,29.90,SSE,163,0.0,0.0,70,0.00,,,0.00,WeatherCatV2.41B14,2017-05-28 15:02:00,
2017-05-28 11:07:00,68.8,58.6,29.91,SSE,163,0.0,0.0,70,0.00,,,0.00,WeatherCatV2.41B14,2017-05-28 15:07:00,
2017-05-28 11:12:00,69.2,59.0,29.91,SSE,163,0.0,5.0,70,0.00,,,0.00,WeatherCatV2.41B14,2017-05-28 15:12:00,
2017-05-28 11:17:00,69.7,58.2,29.90,SSE,163,0.0,0.0,67,0.00,,,0.00,WeatherCatV2.41B14,2017-05-28 15:17:00,
2017-05-28 11:22:00,69.3,59.5,29.90,SSE,163,0.0,0.0,71,0.00,,,0.00,WeatherCatV2.41B14,2017-05-28 15:22:00,
2017-05-28 11:27:00,69.7,59.1,29.90,SSE,163,4.0,6.0,69,0.00,,,0.00,WeatherCatV2.41B14,2017-05-28 15:27:00,
2017-05-28 11:32:00,70.2,58.3,29.90,SSE,163,0.0,0.0,66,0.00,,,0.00,WeatherCatV2.41B14,2017-05-28 15:32:00,
2017-05-28 11:37:00,69.9,58.0,29.90,SSE,160,0.0,0.0,66,0.00,,,0.00,WeatherCatV2.41B14,2017-05-28 15:37:00,
2017-05-28 11:42:00,70.0,58.1,29.90,SE,131,4.0,4.0,66,0.00,,,0.00,WeatherCatV2.41B14,2017-05-28 15:42:00,
2017-05-28 11:47:00,70.3,57.5,29.90,SE,131,0.0,0.0,64,0.00,,,0.00,WeatherCatV2.41B14,2017-05-28 15:47:00,
2017-05-28 11:52:00,70.4,58.1,29.90,SE,132,0.0,0.0,65,0.00,,,0.00,WeatherCatV2.41B14,2017-05-28 15:52:00,
2017-05-28 11:57:00,70.7,58.8,29.90,SE,132,0.0,0.0,66,0.00,,,0.00,WeatherCatV2.41B14,2017-05-28 15:57:00,
2017-05-28 12:02:00,71.1,58.3,29.91,SE,133,5.0,5.0,64,0.00,,,0.00,WeatherCatV2.41B14,2017-05-28 16:02:00,
2017-05-28 12:07:00,71.5,57.3,29.91,SE,133,0.0,0.0,61,0.00,,,0.00,WeatherCatV2.41B14,2017-05-28 16:07:00,
2017-05-28 12:12:00,71.5,59.1,29.91,SE,133,0.0,0.0,65,0.00,,,0.00,WeatherCatV2.41B14,2017-05-28 16:12:00,
2017-05-28 12:17:00,71.8,59.4,29.90,SE,132,0.0,0.0,65,0.00,,,0.00,WeatherCatV2.41B14,2017-05-28 16:17:00,
2017-05-28 12:22:00,72.2,59.3,29.90,SE,129,0.0,1.0,64,0.00,,,0.00,WeatherCatV2.41B14,2017-05-28 16:22:00,
2017-05-28 12:27:00,72.1,58.8,29.90,SE,127,0.0,0.0,63,0.00,,,0.00,WeatherCatV2.41B14,2017-05-28 16:27:00,
2017-05-28 12:32:00,72.3,58.5,29.90,SE,127,0.0,4.0,62,0.00,,,0.00,WeatherCatV2.41B14,2017-05-28 16:32:00,
2017-05-28 12:37:00,72.3,60.3,29.90,SE,127,0.0,0.0,66,0.00,,,0.00,WeatherCatV2.41B14,2017-05-28 16:37:00,
2017-05-28 12:42:00,72.5,59.6,29.90,SE,127,0.0,0.0,64,0.00,,,0.00,WeatherCatV2.41B14,2017-05-28 16:42:00,
2017-05-28 12:47:00,71.9,58.6,29.91,SSE,158,0.0,0.0,63,0.00,,,0.00,WeatherCatV2.41B14,2017-05-28 16:47:00,
2017-05-28 12:52:00,71.8,58.5,29.90,SSE,158,0.0,0.0,63,0.00,,,0.00,WeatherCatV2.41B14,2017-05-28 16:52:00,
2017-05-28 12:57:00,71.7,58.9,29.91,SSE,158,0.0,0.0,64,0.00,,,0.00,WeatherCatV2.41B14,2017-05-28 16:57:00,
2017-05-28 13:02:00,71.4,57.7,29.91,West,267,0.0,0.0,62,0.00,,,0.00,WeatherCatV2.41B14,2017-05-28 17:02:00,
2017-05-28 13:07:00,71.4,59.0,29.91,West,267,0.0,0.0,65,0.00,,,0.00,WeatherCatV2.41B14,2017-05-28 17:07:00,
2017-05-28 13:12:00,71.4,58.1,29.91,West,267,1.0,3.0,63,0.00,,,0.00,WeatherCatV2.41B14,2017-05-28 17:12:00,
2017-05-28 13:17:00,71.4,58.6,29.91,West,267,0.0,0.0,64,0.00,,,0.00,WeatherCatV2.41B14,2017-05-28 17:17:00,
2017-05-28 13:22:00,71.2,59.7,29.91,South,170,0.0,2.0,67,0.00,,,0.00,WeatherCatV2.41B14,2017-05-28 17:22:00,
2017-05-28 13:27:00,70.8,58.4,29.91,South,170,0.0,0.0,65,0.00,,,0.00,WeatherCatV2.41B14,2017-05-28 17:27:00,
2017-05-28 13:32:00,70.2,58.3,29.91,South,169,0.0,0.0,66,0.00,,,0.00,WeatherCatV2.41B14,2017-05-28 17:32:00,
2017-05-28 13:37:00,70.1,57.8,29.91,South,169,0.0,0.0,65,0.00,,,0.00,WeatherCatV2.41B14,2017-05-28 17:37:00,
2017-05-28 13:42:00,69.7,57.8,29.91,South,169,0.0,0.0,66,0.00,,,0.00,WeatherCatV2.41B14,2017-05-28 17:42:00,
2017-05-28 13:47:00,69.7,57.8,29.91,South,169,0.0,0.0,66,0.00,,,0.00,WeatherCatV2.41B14,2017-05-28 17:47:00,
2017-05-28 13:52:00,69.7,58.2,29.91,South,169,0.0,0.0,67,0.00,,,0.00,WeatherCatV2.41B14,2017-05-28 17:52:00,
2017-05-28 13:57:00,69.5,58.5,29.91,South,169,0.0,0.0,68,0.00,,,0.00,WeatherCatV2.41B14,2017-05-28 17:57:00,
2017-05-28 14:02:00,69.5,58.9,29.91,South,169,0.0,0.0,69,0.00,,,0.00,WeatherCatV2.41B14,2017-05-28 18:02:00,
2017-05-28 14:07:00,69.2,59.0,29.90,South,169,0.0,0.0,70,0.00,,,0.00,WeatherCatV2.41B14,2017-05-28 18:07:00,